Date String (YYYY-MM-DD hh:mm:ss) UTC,Instrument flags,absolute air pressure of the measurement (hPa),sample flow rate (lpm),inlet stack bypass flow (lpm),air temperature of the measurement (°C),ambient temperature measured by the external sensor (°C),aerosol sample conditioner tube jacket temperature (°C),OPC LED temperature (°C),internal box temperature (°C),relative humidity of the measurement (%),span deviation,mass concentration of particles derived from Lorenz-Mie calculation of OPC scattering (μg/m³),mass concentration of particles derived from Lorenz-Mie calculation of OPC scattering (μg/m³),mass concentration of particles derived from Lorenz-Mie calculation of OPC scattering (μg/m³)
DateTimeUTC,F1_M11,P_M11,Q1_M11,Q2_M11,T1_M11,T2_M11,T3_M11,T4_M11,T5_M11,U1_M11,ZSPAN_M11,X0_M11,X2_M11,X1_M11
2023-07-18 00:00:00,SystemResetWarning,0831.2,4.98,000.00,028.8,027.3,000.0,037.0,030.5,19.8,0000.0,0010.38,0004.40,0003.79
2023-07-18 00:01:00,SystemResetWarning,0831.2,5.00,000.00,028.8,025.7,000.0,036.9,030.3,21.2,0000.0,0009.78,0004.36,0003.80
2023-07-18 00:02:00,SystemResetWarning,0831.3,5.01,000.00,028.7,024.9,000.0,036.8,030.1,19.1,0000.0,0009.66,0004.36,0003.81
2023-07-18 00:03:00,SystemResetWarning,0831.1,5.00,000.00,028.7,025.2,000.0,036.8,030.1,18.4,0000.0,0009.69,0004.32,0003.81
2023-07-18 00:04:00,SystemResetWarning,0831.0,5.00,000.00,028.6,025.6,000.0,036.9,030.1,17.4,0000.0,0009.71,0004.33,0003.82
2023-07-18 00:05:00,SystemResetWarning,0831.1,5.00,000.00,028.6,026.1,000.0,036.9,030.2,17.0,0000.0,0009.69,0004.35,0003.83
2023-07-18 00:06:00,SystemResetWarning,0831.1,5.01,000.00,028.7,026.5,000.0,036.9,030.3,17.1,0000.0,0010.13,0004.38,0003.83
2023-07-18 00:07:00,SystemResetWarning,0831.2,4.99,000.00,028.7,026.9,000.0,037.0,030.4,17.1,0000.0,0010.71,0004.36,0003.83
2023-07-18 00:08:00,SystemResetWarning,0831.2,5.00,000.00,028.8,027.3,000.0,037.0,030.5,17.0,0000.0,0010.77,0004.38,0003.84
2023-07-18 00:09:00,SystemResetWarning,0831.1,5.00,000.00,028.8,027.3,000.0,037.0,030.6,17.0,0000.0,0010.80,0004.40,0003.84
2023-07-18 00:10:00,SystemResetWarning,0831.2,4.98,000.00,028.8,025.8,000.0,036.9,030.1,16.7,0000.0,0011.50,0004.43,0003.84
2023-07-18 00:11:00,SystemResetWarning,0831.3,5.01,000.00,028.6,024.9,000.0,036.9,029.9,16.7,0000.0,0012.01,0004.52,0003.86
2023-07-18 00:12:00,SystemResetWarning,0831.3,5.01,000.00,028.6,025.2,000.0,036.8,029.9,16.8,0000.0,0013.05,0004.55,0003.86
2023-07-18 00:13:00,SystemResetWarning,0831.4,4.98,000.00,028.6,025.6,000.0,036.9,029.9,16.8,0000.0,0013.36,0004.58,0003.84
2023-07-18 00:14:00,SystemResetWarning,0831.5,5.00,000.00,028.6,026.0,000.0,036.9,030.0,16.7,0000.0,0013.76,0004.59,0003.83
2023-07-18 00:15:00,SystemResetWarning,0831.6,5.01,000.00,028.6,026.5,000.0,036.9,030.2,16.9,0000.0,0015.00,0004.56,0003.81
2023-07-18 00:16:00,SystemResetWarning,0831.6,5.01,000.00,028.6,026.9,000.0,036.9,030.3,16.7,0000.0,0016.28,0004.55,0003.79
2023-07-18 00:17:00,SystemResetWarning,0831.6,5.00,000.00,028.7,027.2,000.0,037.0,030.4,16.9,0000.0,0017.17,0004.53,0003.76
2023-07-18 00:18:00,SystemResetWarning,0831.6,4.99,000.00,028.7,027.3,000.0,037.0,030.4,16.7,0000.0,0018.81,0004.53,0003.73
2023-07-18 00:19:00,SystemResetWarning,0831.6,4.99,000.00,028.7,025.9,000.0,036.9,030.2,16.4,0000.0,0019.95,0004.53,0003.71
2023-07-18 00:20:00,SystemResetWarning,0831.5,5.00,000.00,028.6,024.8,000.0,036.8,029.9,16.6,0000.0,0020.21,0004.52,0003.68
2023-07-18 00:21:00,SystemResetWarning,0831.5,5.01,000.00,028.6,025.1,000.0,036.8,029.9,16.8,0000.0,0021.72,0004.50,0003.64
2023-07-18 00:22:00,SystemResetWarning,0831.4,5.01,000.00,028.5,025.5,000.0,036.8,029.9,16.8,0000.0,0021.42,0004.45,0003.60
2023-07-18 00:23:00,SystemResetWarning,0831.4,5.00,000.00,028.5,025.9,000.0,036.8,030.0,16.5,0000.0,0020.95,0004.43,0003.56
2023-07-18 00:24:00,SystemResetWarning,0831.5,4.99,000.00,028.5,026.4,000.0,036.8,030.2,16.7,0000.0,0021.53,0004.40,0003.52
2023-07-18 00:25:00,SystemResetWarning,0831.5,4.99,000.00,028.6,026.8,000.0,036.9,030.3,16.8,0000.0,0022.27,0004.38,0003.48
2023-07-18 00:26:00,SystemResetWarning,0831.4,5.00,000.00,028.7,027.2,000.0,036.9,030.3,16.8,0000.0,0021.25,0004.39,0003.46
2023-07-18 00:27:00,SystemResetWarning,0831.4,4.99,000.00,028.7,027.5,000.0,037.0,030.5,16.6,0000.0,0020.59,0004.34,0003.45
2023-07-18 00:28:00,SystemResetWarning,0831.4,5.00,000.00,028.8,026.9,000.0,036.9,030.4,16.7,0000.0,0019.79,0004.32,0003.43
2023-07-18 00:29:00,SystemResetWarning,0831.2,4.99,000.00,028.7,025.3,000.0,036.8,030.1,16.9,0000.0,0017.95,0004.28,0003.41
2023-07-18 00:30:00,SystemResetWarning,0831.1,5.02,000.00,028.6,024.9,000.0,036.8,030.0,16.9,0000.0,0015.77,0004.24,0003.40
2023-07-18 00:31:00,SystemResetWarning,0831.1,4.99,000.00,028.6,025.3,000.0,036.8,029.9,16.9,0000.0,0014.90,0004.17,0003.39
2023-07-18 00:32:00,SystemResetWarning,0831.0,4.99,000.00,028.5,025.7,000.0,036.8,030.0,17.1,0000.0,0013.48,0004.14,0003.40
2023-07-18 00:33:00,SystemResetWarning,0830.9,5.01,000.00,028.6,026.2,000.0,036.8,030.1,16.8,0000.0,0013.49,0004.10,0003.39
2023-07-18 00:34:00,SystemResetWarning,0830.9,5.01,000.00,028.6,026.6,000.0,036.9,030.2,17.0,0000.0,0013.97,0004.07,0003.38
2023-07-18 00:35:00,SystemResetWarning,0830.8,5.00,000.00,028.6,027.0,000.0,036.9,030.3,17.0,0000.0,0013.38,0004.02,0003.37
2023-07-18 00:36:00,SystemResetWarning,0830.7,4.99,000.00,028.7,027.2,000.0,036.9,030.4,17.1,0000.0,0012.05,0003.99,0003.37
2023-07-18 00:37:00,SystemResetWarning,0830.5,4.98,000.00,028.7,025.9,000.0,036.8,030.2,16.8,0000.0,0013.34,0003.97,0003.34
2023-07-18 00:38:00,SystemResetWarning,0830.4,5.00,000.00,028.6,024.7,000.0,036.7,030.0,16.9,0000.0,0013.15,0003.93,0003.30
2023-07-18 00:39:00,SystemResetWarning,0830.3,5.01,000.00,028.6,024.9,000.0,036.7,030.0,16.9,0000.0,0012.49,0003.88,0003.27
2023-07-18 00:40:00,SystemResetWarning,0830.3,5.00,000.00,028.5,025.3,000.0,036.8,029.8,16.3,0000.0,0013.18,0003.87,0003.24
2023-07-18 00:41:00,SystemResetWarning,0830.4,4.99,000.00,028.5,025.8,000.0,036.8,030.0,16.6,0000.0,0013.82,0003.86,0003.22
2023-07-18 00:42:00,SystemResetWarning,0830.4,5.00,000.00,028.5,026.3,000.0,036.8,030.1,16.5,0000.0,0014.53,0003.85,0003.19
2023-07-18 00:43:00,SystemResetWarning,0830.4,5.01,000.00,028.6,026.7,000.0,036.8,030.2,16.3,0000.0,0015.05,0003.85,0003.15
2023-07-18 00:44:00,SystemResetWarning,0830.3,4.99,000.00,028.6,027.0,000.0,036.9,030.3,16.4,0000.0,0015.01,0003.82,0003.10
2023-07-18 00:45:00,SystemResetWarning,0830.3,4.99,000.00,028.7,027.4,000.0,036.9,030.4,16.0,0000.0,0014.81,0003.77,0003.06
2023-07-18 00:46:00,SystemResetWarning,0830.3,4.99,000.00,028.7,027.1,000.0,036.9,030.4,15.5,0000.0,0014.17,0003.73,0003.01
2023-07-18 00:47:00,SystemResetWarning,0830.3,5.00,000.00,028.7,025.4,000.0,036.8,030.2,15.2,0000.0,0013.73,0003.72,0002.96
2023-07-18 00:48:00,SystemResetWarning,0830.3,5.01,000.00,028.6,024.8,000.0,036.7,030.0,15.6,0000.0,0012.99,0003.69,0002.94
2023-07-18 00:49:00,SystemResetWarning,0830.3,5.01,000.00,028.5,025.1,000.0,036.7,029.9,15.0,0000.0,0012.40,0003.66,0002.92
2023-07-18 00:50:00,SystemResetWarning,0830.3,4.98,000.00,028.5,025.6,000.0,036.8,029.9,14.4,0000.0,0012.33,0003.63,0002.90
2023-07-18 00:51:00,SystemResetWarning,0830.3,4.99,000.00,028.5,026.0,000.0,036.8,030.1,14.7,0000.0,0011.92,0003.58,0002.89
2023-07-18 00:52:00,SystemResetWarning,0830.3,5.01,000.00,028.6,026.5,000.0,036.8,030.2,14.9,0000.0,0010.99,0003.53,0002.87
2023-07-18 00:53:00,SystemResetWarning,0830.3,5.01,000.00,028.6,026.9,000.0,036.9,030.3,15.5,0000.0,0010.44,0003.53,0002.86
2023-07-18 00:54:00,SystemResetWarning,0830.3,5.00,000.00,028.7,027.2,000.0,036.9,030.4,15.1,0000.0,0009.63,0003.48,0002.85
2023-07-18 00:55:00,SystemResetWarning,0830.3,4.98,000.00,028.7,027.0,000.0,036.9,030.4,15.4,0000.0,0009.38,0003.47,0002.85
2023-07-18 00:56:00,SystemResetWarning,0830.3,4.99,000.00,028.7,025.4,000.0,036.8,030.1,15.8,0000.0,0008.55,0003.46,0002.85
2023-07-18 00:57:00,SystemResetWarning,0830.3,5.01,000.00,028.6,024.8,000.0,036.7,030.0,15.2,0000.0,0009.00,0003.47,0002.86
2023-07-18 00:58:00,SystemResetWarning,0830.2,5.01,000.00,028.6,025.2,000.0,036.7,029.9,15.1,0000.0,0008.99,0003.45,0002.87
2023-07-18 00:59:00,SystemResetWarning,0830.3,5.00,000.00,028.5,025.6,000.0,036.8,030.0,15.3,0000.0,0008.54,0003.45,0002.88
